TITAN 3C TRANSTAGE DEB, 13958

Orbit data source: Space-Track

TITAN 3C TRANSTAGE DEB, 13958 is space debris in HEO originally from a launch on Tue, 21 Dec 1965 UTC launched from the Air Force Eastern Test Range (AFETR). Debris objects in space refer to the collection of defunct objects orbiting the Earth. Examples of debris include non-operational satellites, rocket bodies, and fragments generated from explosions, collisions, or faulty payload assembly.

Loading next visibility...
Identifier
13958, 1965-108X
Orbit
HEO
Country
Flag of USUS
Related business
Manufacturer
Unknown
Mission
Spacecraft
Bus & Motor
Unknown
Mass
Unknown
Launch date (UTC)
1965-12-21 (60 years ago)
Launch vehicle
Unknown
Launch site
Air Force Eastern Test Range (AFETR)
Object type
Payload
Rocket body
Debris
Shape & HBR
Unknown shape, 1.1 m
Radar Cross Section
Small (<0.1 m²)

Expand to show TLE details & history
Last TLE update: 4 months ago

TLE from 4 months ago
0 TITAN 3C TRANSTAGE DEB
1 13958U 65108X   25226.47724523 -.00000024  00000-0  66960-3 0  9994
2 13958  27.0653 294.1007 6815587 171.5223 338.5354  2.70123485210528
Epoch: 2025-08-14T11:27Z
TLE epoch observation values (Epoch: 2025-08-14T11:27:13.987Z)
Latitude
26.01896°
Longitude
-128.49931°
Altitude
6,395.029 km
Speed
6.643 km/s
True Right ascension
00h 25m 47s
True Declination
25° 56' 36"
Sunlit
Object was in daylight at epoch
Visualization orbit readout
Latitude
Unknown
Longitude
Unknown
Altitude
Unknown
Speed
Unknown
Apparent Right ascension
Unknown
Apparent Declination
Unknown
Sunlit
N/A
Visualization observer readout
Local Sidereal Time
05:52:40
Azimuth
Unknown
Elevation
Unknown
Doppler factor
Unknown
Orbital elements
Apogee altitude
30,249.61 km
Perigee altitude
558.158 km
Semi-major axis
21,782.021 km
Eccentricity
0.68156
Inclination
27.0653°
RAAN
294.1007°
Arg. of periapsis
171.5223°
True anomaly
262.96964°
Mean anomaly
338.5354°
Eccentric anomaly
307.5934°
Mean motion
0.67514 °/min
Orbital period
533.22 mins
BSTAR
0.0006696
Loading maneuver chart data...
Computing Atmospheric mass density...

Documentation

Showing up to 5 results
|